YAHSAT 1A

Last updated on Tue Sep 16 2025 00:02:47 GMT+0000 (Coordinated Universal Time)

1 37393U 11016B 25258.59497600 .00000084 00000+0 00000+0 0 9996 2 37393 0.0185 172.2932 0002445 20.6733 68.5261 1.00270752 39658
UTC large
Height (km)
Speed (km/s)
/
Latitude / Longitude
Inclination (degrees)
Orbital Period (minutes)
Azimuth
Elevation
Range (km)
Doppler Factor

Next 0 passes for location: London (51.5072 / 0.1276)

Sorry there are no passes over London.